Weather History for New Castle, PA

Change the Weather History Date:

Tuesday, December 11, 2012

  Actual Average Record
Temperature  
Mean Temperature 34 °F -  
Max Temperature 37 °F 40 °F 69 °F (1971)
Min Temperature 29 °F 24 °F 0 °F (1958)
Degree Days  
Heating Degree Days 31    
Moisture  
Dew Point 29 °F    
Average Humidity 84    
Maximum Humidity 100    
Minimum Humidity 65    
Precipitation  
Precipitation 0.01 in - - ()
Sea Level Pressure  
Sea Level Pressure 30.07 in    
Wind  
Wind Speed 6 mph (West)    
Max Wind Speed 12 mph    
Max Gust Speed -    
Visibility 8 miles    
Events Snow    
Averages and records for this station are not official NWS values.
T = Trace of Precipitation, MM = Missing Value Source: NWS Daily Summary

Daily Weather History Graph

Daily Weather History Graph

Search for Another Location

Airport:

Trip Planner

Search our weather history database for the weather conditions in past years. The results will help you decide how hot, cold, wet, or windy it might be!

Date:

Astronomy

Dec. 11, 2012 Rise Set
Actual Time 7:36 AM EST 4:53 PM EST
Civil Twilight 7:05 AM EST 5:24 PM EST
Nautical Twilight 6:31 AM EST 5:58 PM EST
Astronomical Twilight 5:57 AM EST 6:32 PM EST
Moon 5:29 AM EST (12/11) 3:31 PM EST (12/11)
Length of Visible Light 10h 18m
Length of Day
9h 16m
Waning Crescent, 4% of the Moon is Illuminated
Dec 11
Waning Crescent
Dec 13
New
Dec 20
First Quarter
Dec 28
Full
Jan 4
Last Quarter

Hourly Weather History & Observations

Time (EST) Temp. Windchill Dew Point Humidity Pressure Visibility Wind Dir Wind Speed Gust Speed Precip Events Conditions
12:45 AM 33.8 °F 27.0 °F 33.8 °F 100% 29.81 in 6.0 mi WNW 8.1 mph - 0.00 in   Overcast
12:56 AM 34.0 °F 28.0 °F 32.0 °F 92% 29.88 in 4.0 mi WNW 6.9 mph - 0.00 in   Overcast
1:42 AM 33.8 °F 29.6 °F 32.0 °F 93% 29.82 in 2.5 mi NW 4.6 mph - 0.01 in   Overcast
1:56 AM 32.9 °F 27.5 °F 32.0 °F 96% 29.90 in 6.0 mi WNW 5.8 mph - 0.01 in   Overcast
2:13 AM 32.0 °F 24.8 °F 30.2 °F 93% 29.84 in 10.0 mi NW 8.1 mph - 0.00 in   Overcast
2:44 AM 32.0 °F 25.6 °F 30.2 °F 93% 29.86 in 7.0 mi NW 6.9 mph - 0.00 in Snow Light Snow
2:56 AM 32.0 °F 24.8 °F 30.0 °F 92% 29.94 in 8.0 mi NW 8.1 mph - 0.00 in Snow Light Snow
3:56 AM 32.0 °F - 30.0 °F 92% 29.96 in 10.0 mi Calm Calm - 0.00 in   Overcast
4:56 AM 32.0 °F 28.7 °F 29.1 °F 89% 29.98 in 10.0 mi WNW 3.5 mph - 0.00 in   Overcast
5:42 AM 32.0 °F - 28.4 °F 87% 29.92 in 10.0 mi Calm Calm - 0.00 in   Overcast
5:56 AM 32.0 °F - 30.0 °F 92% 30.00 in 10.0 mi Calm Calm - 0.00 in   Overcast
6:56 AM 32.0 °F - 30.0 °F 92% 30.03 in 10.0 mi Calm Calm - N/A   Mostly Cloudy
7:22 AM 32.0 °F 28.7 °F 30.2 °F 93% 29.97 in 10.0 mi SW 3.5 mph - N/A   Overcast
7:56 AM 32.0 °F 27.5 °F 30.0 °F 92% 30.05 in 10.0 mi WSW 4.6 mph - N/A   Overcast
8:56 AM 32.0 °F 25.6 °F 30.0 °F 92% 30.08 in 10.0 mi West 6.9 mph - N/A   Mostly Cloudy
9:56 AM 34.0 °F 29.8 °F 30.0 °F 85% 30.10 in 10.0 mi SW 4.6 mph - N/A   Overcast
10:56 AM 34.0 °F 26.0 °F 27.1 °F 76% 30.12 in 10.0 mi West 10.4 mph - N/A   Mostly Cloudy
11:34 AM 37.4 °F 29.8 °F 26.6 °F 65% 30.05 in 10.0 mi West 11.5 mph - N/A   Mostly Cloudy
11:56 AM 36.0 °F 28.5 °F 26.1 °F 67% 30.12 in 10.0 mi WSW 10.4 mph - N/A   Scattered Clouds
12:56 PM 36.9 °F 29.6 °F 27.1 °F 68% 30.12 in 10.0 mi SW 10.4 mph - N/A   Mostly Cloudy
1:56 PM 34.0 °F 28.0 °F 29.1 °F 82% 30.13 in 10.0 mi WNW 6.9 mph - 0.00 in   Mostly Cloudy
2:01 PM 33.8 °F 27.0 °F 28.4 °F 81% 30.06 in 4.0 mi WNW 8.1 mph - 0.00 in Snow Light Snow
2:04 PM 33.8 °F 27.0 °F 28.4 °F 81% 30.06 in 1.5 mi West 8.1 mph - 0.00 in Snow Light Snow
2:06 PM 33.8 °F 27.7 °F 28.4 °F 81% 30.06 in 1.0 mi West 6.9 mph - 0.00 in Snow Light Snow
2:13 PM 32.0 °F 26.4 °F 30.2 °F 93% 30.06 in 1.5 mi WSW 5.8 mph - 0.00 in Snow Light Snow
2:16 PM 32.0 °F 27.5 °F 30.2 °F 93% 30.06 in 3.0 mi SW 4.6 mph - 0.00 in Snow Light Snow
2:56 PM 34.9 °F 29.0 °F 27.1 °F 73% 30.14 in 10.0 mi West 6.9 mph - 0.00 in   Mostly Cloudy
3:56 PM 34.9 °F 29.9 °F 25.2 °F 68% 30.16 in 10.0 mi West 5.8 mph - N/A   Overcast
4:56 PM 34.0 °F 31.0 °F 25.2 °F 70% 30.18 in 10.0 mi SW 3.5 mph - N/A   Overcast
5:56 PM 32.9 °F 29.8 °F 26.1 °F 76% 30.19 in 10.0 mi Variable 3.5 mph - N/A   Overcast
6:56 PM 32.9 °F 28.5 °F 27.1 °F 79% 30.21 in 10.0 mi SW 4.6 mph - N/A   Overcast
7:56 PM 32.9 °F - 27.1 °F 79% 30.23 in 10.0 mi Calm Calm - N/A   Overcast
8:45 PM 33.8 °F 30.8 °F 26.6 °F 75% 30.17 in 10.0 mi SW 3.5 mph - N/A   Overcast
8:56 PM 32.9 °F 29.8 °F 27.1 °F 79% 30.25 in 10.0 mi SW 3.5 mph - N/A   Overcast
9:11 PM 33.8 °F 29.6 °F 26.6 °F 75% 30.17 in 10.0 mi SW 4.6 mph - N/A   Overcast
9:56 PM 32.9 °F - 28.0 °F 82% 30.26 in 10.0 mi Calm Calm - N/A   Overcast
10:10 PM 33.8 °F 27.7 °F 28.4 °F 81% 30.19 in 10.0 mi SW 6.9 mph - N/A   Overcast
10:35 PM 32.0 °F 26.4 °F 26.6 °F 80% 30.19 in 10.0 mi WSW 5.8 mph - N/A   Mostly Cloudy
10:56 PM 31.1 °F 24.5 °F 25.2 °F 79% 30.27 in 10.0 mi WSW 6.9 mph - N/A   Partly Cloudy
11:56 PM 29.1 °F 24.1 °F 25.2 °F 85% 30.30 in 10.0 mi SSW 4.6 mph - N/A   Clear